[[{"header":{"parameterUnit":"m.s-1","parameterCategory":2,"la1":30.2991,"la2":30.254,"lo1":-89.0895,"lo2":-89.0444,"dy":0.0017,"dx":0.0017,"nx":28,"ny":28,"refTime":"2025-05-28T03:00:00:Z","depth":"0","parameterNumber":2,"parameterNumberName":"U-component_of_CURRENTS"},"data":[0,0,0,0,0,0,0,0,0,0,0,0,0,0,0,0,0,0,0,0,0,0,0,0,0,0,0,0,0,0,0,0,0,0,0,0,0,0,0,0,0,0,0,0,0,0,0,0,0,0,0,0,0,0,0,0,0,0,0.3861,0.3862,0,0.3947,0.3948,0.3948,0.3916,0.3914,0.3913,0.3912,0.3916,0.3918,0.3919,0,0,0,0,0,0,0,0,0,0,0,0,0,0.3709,0.3712,0.3861,0.3862,0.3864,0.3947,0.3948,0.3948,0.3916,0.3914,0.3913,0.3911,0.3916,0.3918,0.3919,0,0,0,0,0,0,0,0,0,0,0,0,0,0.3779,0.3712,0.3861,0.3862,0.3863,0.3947,0.3948,0.3948,0.3917,0.3914,0.3912,0.391,0.3915,0.3917,0.392,0.3979,0,0,0.3927,0.3928,0,0,0,0,0,0,0,0,0.3775,0.3783,0.386,0.3862,0.3863,0.3923,0.3896,0.3956,0.3917,0.3891,0.3911,0.3909,0.3916,0.3918,0.3933,0.398,0.398,0.3927,0.3928,0.3929,0.393,0,0,0,0,0,0,0,0.377,0.378,0.389,0.3862,0.3864,0.3872,0.3878,0.3908,0.391,0.3893,0.3892,0.391,0.3915,0.3931,0.3933,0.398,0.3927,0.3929,0.393,0.3931,0.4117,0.4121,0,0,0,0,0,0,0.377,0.3776,0.3887,0.3893,0.3818,0.3877,0.3884,0.3902,0.3911,0.3913,0.3912,0.3909,0.3928,0.393,0.3933,0.4029,0.3929,0.3931,0.3933,0.4114,0.4118,0.4122,0,0,0,0,0,0,0.3767,0.3779,0.3884,0.384,0.3854,0.3882,0.3903,0.3905,0.3919,0.3928,0.3926,0.3924,0.3927,0.393,0.3973,0.4028,0.3933,0.3935,0.411,0.4115,0.412,0.4206,0,0,0,0,0,0,0.3762,0.3777,0.3793,0.384,0.3857,0.3949,0.3906,0.3908,0.3936,0.3932,0.3938,0.3936,0.3925,0.397,0.3975,0.4029,0.3936,0.4105,0.4112,0.4118,0.4198,0.4213,0.4226,0,0,0,0,0,0.3756,0.3792,0.3793,0.3807,0.3876,0.3952,0.3962,0.3969,0.3939,0.3967,0.3966,0.3935,0.4016,0.3974,0.398,0.4036,0.4102,0.411,0.4118,0.4192,0.421,0.4226,0,0,0,0,0,0,0.374,0.3794,0.3796,0.3847,0.3901,0.3948,0.398,0.3979,0.4003,0.3991,0.3974,0.3976,0.4043,0.4034,0.3988,0.4114,0.4058,0.4067,0.4113,0.413,0.4143,0.415,0.3938,0,0,0,0,0,0.3745,0.378,0.3839,0.3882,0.3911,0.3944,0.3974,0.3984,0.4013,0.4019,0.4024,0.4041,0.4087,0.4097,0.4135,0.4194,0.4237,0.4239,0.4253,0.4264,0.4278,0.442,0.4448,0.4148,0.4148,0.4148,0,0,0.3751,0.3788,0.3806,0.3881,0.3919,0.3981,0.3955,0.4014,0.4061,0.4019,0.4075,0.4094,0.4117,0.4191,0.422,0.4182,0.4373,0.4275,0.4284,0.4291,0.4431,0.446,0.4486,0.4154,0.4153,0.4152,0,0,0.3788,0.3816,0.3858,0.3909,0.3979,0.4014,0.4033,0.4089,0.4107,0.4177,0.4164,0.4213,0.4268,0.43,0.4322,0.4438,0.4451,0.4452,0.4514,0.4652,0.4678,0.4701,0.479,0.4821,0.4447,0.4447,0.4447,0,0.3788,0.3853,0.3886,0.3947,0.3999,0.403,0.4098,0.4138,0.4197,0.4241,0.4207,0.4335,0.4329,0.444,0.4465,0.4469,0.4537,0.444,0.467,0.4694,0.4716,0.4802,0.4835,0.4452,0.4452,0.4451,0.4451,0,0.3862,0.3914,0.3952,0.4034,0.4096,0.4166,0.4231,0.4295,0.432,0.4359,0.4475,0.4489,0.4566,0.4574,0.4543,0.47,0.4694,0.4679,0.4622,0.4751,0.4834,0.4866,0.446,0.4458,0.4456,0.4455,0,0,0.3869,0.3977,0.3992,0.4046,0.4149,0.4215,0.4317,0.4434,0.4522,0.4569,0.4689,0.4739,0.4745,0.4771,0.4758,0.4841,0.5025,0.4817,0.4822,0.4895,0.5321,0.5177,0.5198,0.5062,0.5068,0.5073,0.5314,0,0.3919,0.4035,0.4081,0.4204,0.4278,0.4353,0.445,0.4554,0.4644,0.4766,0.4806,0.4908,0.4823,0.487,0.4946,0.5019,0.5116,0.496,0.5194,0.5201,0.5049,0.5233,0.4929,0.5107,0.5346,0.5351,0.5355,0,0.3977,0.4056,0.4169,0.4308,0.4348,0.4421,0.4615,0.4706,0.4874,0.4946,0.5056,0.5094,0.5212,0.5126,0.5331,0.5243,0.5293,0.5331,0.5342,0.5199,0.5117,0.502,0.5156,0.5057,0.5404,0.54,0.5397,0,0.398,0.4119,0.421,0.4258,0.4415,0.4491,0.4585,0.4758,0.487,0.5069,0.5188,0.5318,0.541,0.5515,0.5556,0.5485,0.5784,0.5704,0.5628,0.5617,0.5397,0.5355,0.5451,0.5886,0.5885,0.5884,0.5884,0,0.4022,0.41,0.4216,0.4271,0.442,0.4506,0.4679,0.4809,0.4991,0.5135,0.5264,0.5407,0.552,0.5672,0.5686,0.5763,0.5908,0.5686,0.5696,0.5415,0.5374,0.5303,0.5257,0.5893,0.5891,0.589,0.5888,0,0.402,0.4081,0.4204,0.436,0.4419,0.4525,0.4726,0.4847,0.5029,0.5235,0.5306,0.5537,0.5715,0.5817,0.5999,0.5927,0.5849,0.6002,0.5631,0.559,0.5336,0.5304,0.5243,0.5095,0.5955,0.5953,0.5952,0,0.4028,0.4089,0.4258,0.4331,0.4401,0.4559,0.4666,0.4853,0.4967,0.5291,0.5374,0.5631,0.5739,0.5961,0.59,0.5946,0.5824,0.5707,0.5491,0.5325,0.5302,0.5119,0.4986,0.5247,0.524,0.5234,0.523,0,0.4085,0.413,0.4237,0.4354,0.4463,0.4601,0.4745,0.4835,0.504,0.5181,0.5366,0.5484,0.5673,0.5566,0.564,0.5616,0.5408,0.5583,0.5541,0.4871,0.4556,0.4414,0.5071,0.5178,0.5183,0.5187,0.5189,0.5192,0.4123,0.4209,0.4305,0.4397,0.4491,0.4566,0.4598,0.4712,0.482,0.4911,0.5169,0.5181,0.5262,0.5272,0.5243,0.5015,0.504,0.4837,0.4854,0.4718,0.4431,0.4947,0.4971,0.4975,0.4978,0.4981,0.4984,0,0.4157,0.4239,0.4339,0.4404,0.4381,0.4476,0.4574,0.451,0.4476,0.4604,0.4659,0.4659,0.4588,0.4635,0.4511,0.4332,0.4113,0.4247,0.3942,0.388,0.4465,0.4285,0.4003,0.4003,0.4004,0.4004,0.4004,0.4004,0.4194,0.4272,0.4295,0.4239,0.424,0.4164,0.4154,0.4061,0.4053,0.3924,0.3845,0.3946,0.4194,0.4237,0.4053,0.3933,0.3688,0.3462,0.3572,0.4006,0.4062,0.4115,0.3938,0.3588,0.3587,0.2747,0.2741,0.2736]},{"header":{"parameterUnit":"m.s-1","parameterCategory":2,"la1":30.2991,"la2":30.254,"lo1":-89.0895,"lo2":-89.0444,"dy":0.0017,"dx":0.0017,"nx":28,"ny":28,"refTime":"2025-05-28T03:00:00:Z","depth":"0","parameterNumber":3,"parameterNumberName":"V-component_of_CURRENTS"},"data":[0,0,0,0,0,0,0,0,0,0,0,0,0,0,0,0,0,0,0,0,0,0,0,0,0,0,0,0,0,0,0,0,0,0,0,0,0,0,0,0,0,0,0,0,0,0,0,0,0,0,0,0,0,0,0,0,0,0,0.0208,0.0208,0,0.0187,0.0186,0.0186,0.0146,0.0145,0.0145,0.0144,0.0096,0.0095,0.0094,0,0,0,0,0,0,0,0,0,0,0,0,0,0.0189,0.019,0.0208,0.0208,0.0208,0.0187,0.0186,0.0186,0.0146,0.0145,0.0145,0.0144,0.0096,0.0095,0.0094,0,0,0,0,0,0,0,0,0,0,0,0,0,0.0184,0.019,0.0208,0.0187,0.0185,0.0187,0.0186,0.0186,0.0146,0.0145,0.0144,0.0143,0.0096,0.0095,0.0094,0.0105,0,0,0.0091,0.009,0,0,0,0,0,0,0,0,0.0184,0.0184,0.019,0.0188,0.0186,0.017,0.0162,0.0158,0.0146,0.0159,0.0144,0.0143,0.012,0.0117,0.0112,0.0103,0.0101,0.0091,0.009,0.0089,0.0089,0,0,0,0,0,0,0,0.0185,0.0185,0.0198,0.019,0.0188,0.017,0.0168,0.0161,0.0143,0.0158,0.0155,0.0156,0.0118,0.0114,0.0111,0.01,0.0091,0.009,0.0089,0.0088,0.0095,0.0096,0,0,0,0,0,0,0.0194,0.0186,0.0198,0.0197,0.0185,0.0171,0.0169,0.0174,0.0143,0.0138,0.0157,0.0154,0.0116,0.0112,0.0109,0.0148,0.0089,0.0088,0.0088,0.0094,0.0095,0.0096,0,0,0,0,0,0,0.0193,0.0195,0.0199,0.0192,0.0191,0.0173,0.0179,0.0174,0.0168,0.0143,0.0137,0.0155,0.0115,0.0111,0.0109,0.0144,0.0088,0.0087,0.0093,0.0094,0.0095,0.0208,0,0,0,0,0,0,0.0193,0.0195,0.0202,0.0193,0.0192,0.0213,0.018,0.0175,0.0171,0.0168,0.014,0.0135,0.0114,0.0111,0.0108,0.0142,0.0086,0.0092,0.0094,0.0095,0.0203,0.0213,0.0221,0,0,0,0,0,0.0192,0.0218,0.0203,0.0204,0.0202,0.0214,0.0213,0.0194,0.0172,0.0182,0.016,0.0136,0.0119,0.0111,0.0108,0.0142,0.0091,0.0093,0.0095,0.0199,0.0211,0.0221,0,0,0,0,0,0,0.0218,0.0216,0.0199,0.0223,0.022,0.0208,0.0218,0.0199,0.0189,0.0182,0.0149,0.0143,0.0155,0.0128,0.0121,0.0145,0.01,0.0101,0.0181,0.0191,0.02,0.0229,0.0085,0,0,0,0,0,0.0225,0.0241,0.0232,0.025,0.0251,0.0231,0.0232,0.0219,0.0209,0.0203,0.0183,0.0162,0.0161,0.0159,0.0147,0.0164,0.014,0.018,0.0189,0.0197,0.0216,0.0223,0.0235,0.0102,0.0102,0.0102,0,0,0.024,0.0241,0.0249,0.0256,0.0249,0.0276,0.0229,0.0239,0.0268,0.0201,0.0226,0.0194,0.0171,0.0191,0.0194,0.0173,0.0216,0.0199,0.0207,0.0221,0.0226,0.024,0.0251,0.0103,0.0103,0.0103,0,0,0.0291,0.0277,0.0311,0.0317,0.0317,0.0308,0.0313,0.0302,0.0303,0.0319,0.0281,0.0273,0.0261,0.026,0.0257,0.0308,0.0263,0.0293,0.0369,0.0376,0.0387,0.0398,0.0364,0.037,0.03,0.03,0.03,0,0.0307,0.035,0.0322,0.036,0.0382,0.0329,0.0379,0.0376,0.0366,0.0386,0.0342,0.0341,0.0305,0.0354,0.0358,0.0334,0.031,0.0334,0.0391,0.04,0.0409,0.0372,0.0377,0.0306,0.0305,0.0305,0.0304,0,0.039,0.042,0.0443,0.0473,0.049,0.0521,0.0518,0.053,0.0511,0.0506,0.0535,0.0484,0.0488,0.0468,0.0425,0.0472,0.0425,0.0402,0.0371,0.043,0.0385,0.0389,0.0314,0.0312,0.031,0.0309,0,0,0.0439,0.0492,0.0499,0.0544,0.0556,0.0589,0.0634,0.0675,0.0731,0.0688,0.0762,0.0715,0.0669,0.0661,0.0606,0.0595,0.0606,0.0522,0.0519,0.0501,0.0594,0.0538,0.0536,0.0595,0.0596,0.0598,0.0532,0,0.0513,0.0616,0.0618,0.0718,0.0775,0.0759,0.082,0.0846,0.0851,0.0902,0.0847,0.0884,0.0752,0.0764,0.0727,0.0655,0.0625,0.0625,0.0528,0.0525,0.0481,0.0542,0.0521,0.0459,0.0535,0.0536,0.0536,0,0.06,0.0661,0.0773,0.0871,0.0895,0.0944,0.1044,0.1093,0.1133,0.1142,0.1138,0.1091,0.1068,0.0954,0.0844,0.0848,0.0726,0.0647,0.0642,0.0561,0.0479,0.0415,0.0463,0.0277,0.0541,0.0541,0.054,0,0.0674,0.0776,0.0875,0.0905,0.0995,0.1056,0.1107,0.1168,0.1247,0.1302,0.1364,0.1299,0.1305,0.1155,0.0954,0.091,0.083,0.0755,0.0584,0.0576,0.0525,0.0511,0.0399,0.0682,0.0682,0.0682,0.0683,0,0.0765,0.0847,0.0921,0.0979,0.1125,0.1153,0.1302,0.135,0.144,0.1566,0.1492,0.1579,0.1359,0.1275,0.1048,0.0837,0.09,0.0615,0.0575,0.0558,0.0549,0.0357,0.0223,0.068,0.068,0.0681,0.0681,0,0.0839,0.0879,0.1004,0.1114,0.1165,0.1271,0.1428,0.1537,0.1609,0.1777,0.1811,0.1803,0.1698,0.1452,0.1231,0.0987,0.0647,0.0682,0.0654,0.0612,0.0251,0.0124,-0.0066,-0.0158,0.0479,0.0478,0.0477,0,0.0892,0.0964,0.1101,0.1192,0.1248,0.14,0.1516,0.1615,0.1739,0.1926,0.2024,0.1994,0.1991,0.1634,0.122,0.0836,0.0621,0.0551,0.0457,0.0249,0.0078,-0.0014,-0.0083,0.0415,0.0413,0.0412,0.0411,0,0.1007,0.1039,0.1133,0.1307,0.144,0.1602,0.1771,0.1893,0.2038,0.2193,0.2376,0.24,0.207,0.1687,0.1157,0.0881,0.0395,0.0508,0.0323,0.0048,-0.0086,-0.0198,0.0407,0.0399,0.04,0.0401,0.0401,0.0402,0.1083,0.1168,0.1281,0.1444,0.1596,0.179,0.1942,0.2122,0.2346,0.2591,0.2605,0.2665,0.2114,0.1396,0.101,0.0299,0.0282,0.006,-0.0072,-0.0139,-0.0242,0.0318,0.0248,0.0249,0.0249,0.0249,0.0249,0,0.1188,0.1281,0.1428,0.1614,0.1771,0.1842,0.2106,0.2267,0.2535,0.2725,0.2872,0.2615,0.194,0.1265,0.0297,-0.0188,-0.0349,-0.044,-0.0567,-0.0606,-0.0074,-0.0088,-0.0266,-0.0266,-0.0266,-0.0266,-0.0266,-0.0265,0.1256,0.1401,0.1462,0.1725,0.1856,0.2095,0.2249,0.2496,0.2673,0.2888,0.29,0.2888,0.2359,0.0665,-0.0423,-0.0662,-0.0968,-0.1087,-0.1211,-0.0852,-0.0814,-0.0778,-0.0819,-0.1147,-0.1149,-0.1669,-0.1675,-0.1679]}],[{"header":{"parameterUnit":"m.s-1","parameterCategory":2,"la1":30.2991,"la2":30.254,"lo1":-89.0895,"lo2":-89.0444,"dy":0.0017,"dx":0.0017,"nx":28,"ny":28,"refTime":"2025-05-28T03:00:00:Z","depth":"2","parameterNumber":2,"parameterNumberName":"U-component_of_CURRENTS"},"data":[0,0,0,0,0,0,0,0,0,0,0,0,0,0,0,0,0,0,0,0,0,0,0,0,0,0,0,0,0,0,0,0,0,0,0,0,0,0,0,0,0,0,0,0,0,0,0,0,0,0,0,0,0,0,0,0,0,0,0.3368,0.3369,0,0.3423,0.3423,0.3424,0.3416,0.3415,0.3414,0.3413,0.3442,0.3444,0.3446,0,0,0,0,0,0,0,0,0,0,0,0,0,0.328,0.3282,0.3368,0.3369,0.3369,0.3422,0.3423,0.3424,0.3416,0.3415,0.3414,0.3412,0.3442,0.3444,0.3446,0,0,0,0,0,0,0,0,0,0,0,0,0,0.3326,0.3282,0.3368,0.337,0.3371,0.3422,0.3423,0.3425,0.3416,0.3415,0.3413,0.3412,0.3441,0.3444,0.3446,0.3495,0,0,0.3454,0.3456,0,0,0,0,0,0,0,0,0.3324,0.333,0.3369,0.337,0.3371,0.3409,0.3403,0.3446,0.3417,0.3401,0.3413,0.3411,0.3429,0.3433,0.3449,0.3497,0.3498,0.3455,0.3456,0.3457,0.3458,0,0,0,0,0,0,0,0.3321,0.3328,0.3391,0.337,0.3371,0.3376,0.3381,0.3412,0.3424,0.3402,0.3401,0.3405,0.3429,0.3447,0.345,0.3498,0.3455,0.3457,0.3459,0.346,0.3629,0.3631,0,0,0,0,0,0,0.3311,0.3325,0.339,0.3393,0.3341,0.3379,0.3384,0.34,0.3424,0.3426,0.3407,0.3405,0.3443,0.3447,0.3451,0.3567,0.3457,0.346,0.3462,0.3626,0.3629,0.3632,0,0,0,0,0,0,0.331,0.3317,0.3387,0.3358,0.3367,0.3382,0.34,0.3402,0.3435,0.3428,0.3429,0.3439,0.3442,0.3447,0.3507,0.3565,0.3461,0.3464,0.3622,0.3627,0.3631,0.3763,0,0,0,0,0,0,0.3307,0.3317,0.3343,0.3358,0.3368,0.3445,0.3401,0.3404,0.3438,0.3437,0.3456,0.3456,0.3441,0.3503,0.3509,0.3567,0.3466,0.3619,0.3624,0.3629,0.3755,0.3771,0.3785,0,0,0,0,0,0.3304,0.3339,0.3345,0.3353,0.3398,0.3447,0.3455,0.346,0.3442,0.348,0.3489,0.3456,0.3541,0.3508,0.3515,0.3575,0.3616,0.3623,0.3629,0.3748,0.3768,0.3784,0,0,0,0,0,0,0.3316,0.3342,0.3348,0.3391,0.343,0.3446,0.3479,0.3481,0.352,0.3514,0.3501,0.3504,0.358,0.3562,0.3526,0.3638,0.3571,0.3579,0.3659,0.3677,0.3692,0.3677,0.3468,0,0,0,0,0,0.3332,0.3363,0.3394,0.3432,0.3456,0.3475,0.3499,0.3502,0.3527,0.3542,0.3549,0.3565,0.3613,0.3631,0.3659,0.3725,0.3736,0.3765,0.378,0.3793,0.3786,0.3909,0.3935,0.3654,0.3653,0.3653,0,0,0.3342,0.3364,0.338,0.3437,0.3464,0.3515,0.3487,0.3532,0.3578,0.3541,0.3607,0.3625,0.3645,0.372,0.3751,0.3711,0.3876,0.3802,0.3813,0.3798,0.3918,0.3946,0.397,0.3658,0.3657,0.3656,0,0,0.3375,0.3407,0.3446,0.3481,0.3529,0.3556,0.3577,0.361,0.3638,0.3704,0.3697,0.3748,0.38,0.383,0.3853,0.3969,0.396,0.3982,0.4042,0.4163,0.4188,0.4209,0.4245,0.4269,0.3982,0.3982,0.3982,0,0.3385,0.3441,0.3469,0.3514,0.3541,0.358,0.3626,0.3681,0.3727,0.3763,0.3737,0.3849,0.3853,0.3969,0.3997,0.4005,0.4048,0.3974,0.4185,0.4206,0.4226,0.4258,0.4283,0.3989,0.3989,0.3988,0.3987,0,0.3437,0.3492,0.3521,0.3592,0.3633,0.3684,0.3743,0.3803,0.3832,0.3873,0.3984,0.4008,0.407,0.4089,0.4073,0.4222,0.4198,0.42,0.414,0.4263,0.4288,0.4311,0.4,0.3997,0.3995,0.3993,0,0,0.3425,0.3537,0.3545,0.3588,0.3671,0.3705,0.3806,0.3909,0.3991,0.4046,0.4149,0.422,0.4235,0.426,0.4271,0.4348,0.4507,0.433,0.4333,0.4365,0.4739,0.4563,0.457,0.4573,0.4578,0.4582,0.4696,0,0.3461,0.3554,0.3596,0.3688,0.3744,0.38,0.3905,0.3994,0.4074,0.4193,0.4255,0.4366,0.4311,0.4362,0.4439,0.4511,0.4577,0.4472,0.4613,0.4615,0.4446,0.4595,0.4249,0.4309,0.4718,0.4722,0.4724,0,0.35,0.3553,0.364,0.3754,0.3783,0.385,0.3991,0.4091,0.4269,0.4334,0.4444,0.4502,0.4635,0.4572,0.4749,0.4698,0.4718,0.4744,0.4751,0.4551,0.4483,0.4255,0.4335,0.4762,0.4759,0.4756,0.4754,0,0.3475,0.3589,0.3656,0.3683,0.3819,0.3875,0.3975,0.4136,0.4231,0.4447,0.4537,0.4694,0.4792,0.4882,0.4884,0.4872,0.504,0.5042,0.4888,0.4874,0.458,0.453,0.5159,0.5159,0.5159,0.5159,0.5158,0,0.3508,0.3551,0.3657,0.3684,0.3797,0.3885,0.404,0.4159,0.4334,0.4469,0.4624,0.4735,0.4885,0.4968,0.4969,0.4976,0.512,0.4915,0.4916,0.461,0.4565,0.495,0.4924,0.5163,0.5162,0.5161,0.516,0,0.3481,0.3553,0.3606,0.3726,0.3793,0.3862,0.4062,0.4189,0.4361,0.4538,0.4614,0.4817,0.4975,0.5031,0.5165,0.5072,0.5098,0.5041,0.4616,0.4563,0.4834,0.4814,0.4966,0.4962,0.4958,0.4954,0.4952,0,0.347,0.3515,0.361,0.3683,0.3746,0.389,0.4038,0.4199,0.4299,0.4558,0.4627,0.4838,0.4902,0.5003,0.496,0.4944,0.5034,0.4553,0.4465,0.4842,0.4828,0.4814,0.48,0.4128,0.4119,0.4112,0.4105,0,0.3445,0.3474,0.3532,0.3646,0.377,0.3901,0.4075,0.4126,0.4324,0.442,0.4538,0.46,0.4758,0.459,0.4555,0.4495,0.4541,0.4397,0.4969,0.4211,0.4056,0.404,0.4054,0.4037,0.4044,0.4049,0.4053,0.4056,0.3412,0.3432,0.3503,0.3594,0.3738,0.3828,0.3872,0.3992,0.4034,0.4066,0.4275,0.4231,0.4297,0.41,0.3957,0.3883,0.4213,0.4007,0.403,0.4061,0.3924,0.377,0.3668,0.3672,0.3676,0.3679,0.3682,0,0.335,0.3393,0.3477,0.3527,0.3563,0.372,0.3838,0.3769,0.3702,0.3784,0.3783,0.3476,0.3358,0.3441,0.3234,0.32,0.3166,0.3062,0.3006,0.3078,0.3141,0.2955,0.2443,0.2438,0.2434,0.243,0,0,0.3332,0.332,0.332,0.3274,0.3376,0.3423,0.3444,0.3292,0.3259,0.307,0.3001,0.3211,0.3346,0.2859,0.2803,0.2589,0.2805,0.2482,0.3493,0.3503,0.356,0.3717,0.3516,0,0,0,0,0]},{"header":{"parameterUnit":"m.s-1","parameterCategory":2,"la1":30.2991,"la2":30.254,"lo1":-89.0895,"lo2":-89.0444,"dy":0.0017,"dx":0.0017,"nx":28,"ny":28,"refTime":"2025-05-28T03:00:00:Z","depth":"2","parameterNumber":3,"parameterNumberName":"V-component_of_CURRENTS"},"data":[0,0,0,0,0,0,0,0,0,0,0,0,0,0,0,0,0,0,0,0,0,0,0,0,0,0,0,0,0,0,0,0,0,0,0,0,0,0,0,0,0,0,0,0,0,0,0,0,0,0,0,0,0,0,0,0,0,0,0.0063,0.0062,0,0.0031,0.003,0.003,-0.0003,-0.0003,-0.0004,-0.0004,-0.0046,-0.0046,-0.0047,0,0,0,0,0,0,0,0,0,0,0,0,0,0.0057,0.0058,0.0063,0.0062,0.0062,0.0031,0.003,0.003,-0.0003,-0.0003,-0.0004,-0.0004,-0.0045,-0.0046,-0.0047,0,0,0,0,0,0,0,0,0,0,0,0,0,0.0046,0.0058,0.0063,0.0042,0.004,0.0031,0.003,0.003,-0.0003,-0.0003,-0.0004,-0.0005,-0.0045,-0.0046,-0.0047,-0.0041,0,0,-0.005,-0.0051,0,0,0,0,0,0,0,0,0.0046,0.0046,0.0046,0.0044,0.0041,0.0018,0.0013,0.0006,-0.0003,0.0013,-0.0004,-0.0005,-0.0025,-0.0027,-0.0032,-0.0043,-0.0045,-0.005,-0.0051,-0.0052,-0.0052,0,0,0,0,0,0,0,0.0047,0.0047,0.005,0.0045,0.0043,0.0021,0.0019,0.0012,-0.0002,0.0012,0.0009,0.0007,-0.0026,-0.0031,-0.0034,-0.0045,-0.005,-0.0051,-0.0052,-0.0052,-0.0058,-0.0058,0,0,0,0,0,0,0.0055,0.0048,0.0051,0.0049,0.0043,0.0022,0.002,0.0026,-0.0002,-0.0007,0.0007,0.0005,-0.0029,-0.0032,-0.0035,-0.0002,-0.0052,-0.0053,-0.0053,-0.0059,-0.0058,-0.0057,0,0,0,0,0,0,0.0055,0.0056,0.0052,0.0047,0.0045,0.0023,0.003,0.0025,0.0022,-0.0005,-0.001,0.0009,-0.003,-0.0034,-0.0033,-0.0005,-0.0053,-0.0054,-0.0059,-0.0058,-0.0058,0.0046,0,0,0,0,0,0,0.0055,0.0056,0.0064,0.0048,0.0046,0.006,0.003,0.0025,0.0021,0.0018,-0.0006,-0.001,-0.0031,-0.0031,-0.0034,-0.0008,-0.0055,-0.006,-0.0059,-0.0058,0.0042,0.005,0.0057,0,0,0,0,0,0.0055,0.0078,0.0065,0.0065,0.0057,0.0061,0.0059,0.004,0.0022,0.0032,0.0013,-0.001,-0.0028,-0.0031,-0.0034,-0.0008,-0.006,-0.0059,-0.0058,0.0039,0.0049,0.0057,0,0,0,0,0,0,0.0082,0.0076,0.0062,0.0081,0.0074,0.0056,0.0063,0.0046,0.0038,0.0033,0.0003,-0.0002,0.0007,-0.0019,-0.0022,-0.0011,-0.005,-0.005,0.0025,0.0034,0.0041,0.006,-0.0056,0,0,0,0,0,0.009,0.0104,0.0091,0.0106,0.0105,0.0083,0.0081,0.0068,0.0057,0.0052,0.0034,0.0013,0.0009,0.0007,-0.0008,0.0005,-0.0028,0.0015,0.0023,0.003,0.004,0.0024,0.0032,-0.0054,-0.0054,-0.0054,0,0,0.0103,0.0102,0.0109,0.0112,0.0103,0.0122,0.0081,0.0086,0.0108,0.005,0.0071,0.0041,0.0016,0.003,0.0031,0.0014,0.0032,0.0031,0.0038,0.0044,0.0026,0.0035,0.0043,-0.0053,-0.0053,-0.0053,0,0,0.0148,0.0137,0.0166,0.0166,0.0161,0.0151,0.0156,0.0141,0.0142,0.0151,0.0118,0.0106,0.0092,0.0086,0.008,0.012,0.0072,0.0108,0.017,0.0155,0.0163,0.0169,0.0125,0.0127,0.0115,0.0115,0.0116,0,0.0162,0.02,0.0175,0.0204,0.0216,0.0171,0.0209,0.0206,0.0194,0.0205,0.017,0.0154,0.0123,0.0157,0.0162,0.0141,0.0112,0.0143,0.0168,0.0173,0.0178,0.0132,0.0132,0.012,0.012,0.0119,0.0119,0,0.0231,0.0258,0.0276,0.03,0.0307,0.0331,0.0322,0.0325,0.0306,0.0303,0.0317,0.0271,0.0263,0.0248,0.0216,0.0241,0.0201,0.018,0.0151,0.0193,0.0141,0.0139,0.0128,0.0126,0.0124,0.0123,0,0,0.0271,0.0318,0.0323,0.0361,0.0362,0.0384,0.0411,0.0436,0.0472,0.0437,0.0487,0.0445,0.0407,0.0396,0.0354,0.0332,0.0322,0.0272,0.0269,0.0241,0.0269,0.0208,0.0199,0.0309,0.031,0.031,0.0215,0,0.0334,0.0416,0.0419,0.0499,0.0542,0.0517,0.056,0.057,0.0562,0.0595,0.0548,0.0575,0.0473,0.0479,0.0437,0.0365,0.0325,0.0348,0.0222,0.0217,0.0169,0.0199,0.0226,0.0142,0.0213,0.0213,0.0213,0,0.0406,0.0452,0.0541,0.0619,0.0637,0.0677,0.0728,0.0765,0.0781,0.078,0.0767,0.0729,0.0703,0.0612,0.0488,0.0508,0.0391,0.0315,0.031,0.0218,0.0155,0.0112,0.0136,0.021,0.021,0.021,0.021,0,0.0461,0.0546,0.0625,0.0647,0.0714,0.0757,0.0798,0.0822,0.088,0.091,0.0952,0.0886,0.0889,0.0738,0.0529,0.0528,0.0374,0.0357,0.0185,0.0178,0.0159,0.0149,0.0263,0.0263,0.0263,0.0263,0.0264,0,0.054,0.0604,0.0663,0.0708,0.0821,0.084,0.0961,0.0978,0.1038,0.1145,0.1065,0.1124,0.0923,0.0798,0.0588,0.0365,0.0408,0.02,0.0159,0.0191,0.0186,0.0213,0.0208,0.026,0.026,0.0261,0.0262,0,0.0597,0.0632,0.0724,0.0807,0.0855,0.0932,0.1076,0.1167,0.1202,0.1336,0.1363,0.1315,0.1186,0.0919,0.0682,0.0467,0.0244,0.0141,0.0169,0.0133,0.0048,0.005,-0.0005,-0.0008,-0.001,-0.0012,-0.0014,0,0.0636,0.0688,0.0794,0.0876,0.0927,0.1058,0.1173,0.1243,0.1353,0.1463,0.155,0.1466,0.1418,0.1008,0.0642,0.0261,0.0213,0.002,0.0027,0.006,0.0025,0.0031,0.0035,0.0033,0.0032,0.0031,0.0031,0,0.0702,0.0725,0.0808,0.0971,0.11,0.1244,0.1412,0.1525,0.164,0.174,0.1847,0.1808,0.1463,0.1102,0.0559,0.0306,0.0086,-0.0008,0.0035,0.0094,0.0088,0.0056,0.0062,0.0023,0.0023,0.0024,0.0024,0.0025,0.0748,0.0802,0.0915,0.1084,0.1237,0.142,0.1573,0.1749,0.1924,0.2074,0.2036,0.1978,0.1572,0.091,0.0466,0.0026,0.0071,-0.0097,-0.0091,-0.0084,-0.0065,-0.0075,-0.0169,-0.0169,-0.017,-0.017,-0.017,0,0.0804,0.0887,0.1038,0.1224,0.1407,0.1472,0.1735,0.1879,0.2113,0.2189,0.2234,0.1827,0.1411,0.095,0.0307,-0.0095,-0.0108,-0.0228,-0.0147,-0.0136,-0.0128,-0.0108,-0.0226,-0.0227,-0.0229,-0.023,0,0,0.0841,0.0967,0.1044,0.1335,0.1491,0.1733,0.189,0.2077,0.2194,0.2252,0.2201,0.208,0.1536,0.1056,0.0522,0.0156,0.0099,0.0074,0.016,0.0329,0.0343,-0.0015,0.003,0,0,0,0,0]}],[{"header":{"parameterUnit":"m.s-1","parameterCategory":2,"la1":30.2991,"la2":30.254,"lo1":-89.0895,"lo2":-89.0444,"dy":0.0017,"dx":0.0017,"nx":28,"ny":28,"refTime":"2025-05-28T03:00:00:Z","depth":"4","parameterNumber":2,"parameterNumberName":"U-component_of_CURRENTS"},"data":[0,0,0,0,0,0,0,0,0,0,0,0,0,0,0,0,0,0,0,0,0,0,0,0,0,0,0,0,0,0,0,0,0,0,0,0,0,0,0,0,0,0,0,0,0,0,0,0,0,0,0,0,0,0,0,0,0,0,0.1955,0.1956,0,0.1976,0.1976,0.1975,0.2038,0.204,0.2042,0.2044,0.2123,0.2123,0.2123,0,0,0,0,0,0,0,0,0,0,0,0,0,0.1893,0.1894,0.1955,0.1956,0.1956,0.1976,0.1976,0.1975,0.2038,0.204,0.2043,0.2045,0.2123,0.2123,0.2124,0,0,0,0,0,0,0,0,0,0,0,0,0,0.1913,0.1894,0.1955,0.1994,0.1998,0.1976,0.1976,0.1975,0.2038,0.204,0.2043,0.2046,0.2122,0.2123,0.2124,0.2072,0,0,0.2125,0.2126,0,0,0,0,0,0,0,0,0.1912,0.1914,0.1987,0.1991,0.1995,0.2012,0.1983,0.2012,0.2037,0.2017,0.2044,0.2047,0.2092,0.2095,0.2085,0.2076,0.2079,0.2125,0.2126,0.2126,0.2126,0,0,0,0,0,0,0,0.191,0.1913,0.1958,0.1988,0.1993,0.1984,0.199,0.1988,0.2036,0.2019,0.2025,0.2034,0.2094,0.2084,0.2088,0.208,0.2125,0.2126,0.2126,0.2127,0.2249,0.2252,0,0,0,0,0,0,0.1918,0.1912,0.1958,0.1959,0.1965,0.1983,0.199,0.2,0.2035,0.2044,0.2032,0.2037,0.2082,0.2087,0.2091,0.2198,0.2126,0.2127,0.2127,0.2246,0.225,0.2253,0,0,0,0,0,0,0.1917,0.1922,0.1957,0.194,0.1945,0.1983,0.1992,0.1999,0.2035,0.2045,0.2055,0.2069,0.2084,0.209,0.216,0.2195,0.2127,0.2127,0.2243,0.2247,0.2251,0.2305,0,0,0,0,0,0,0.1915,0.1921,0.1947,0.1941,0.1946,0.198,0.199,0.1997,0.2036,0.2045,0.2078,0.2086,0.2087,0.2159,0.2161,0.2195,0.2128,0.2239,0.2245,0.225,0.23,0.2311,0.232,0,0,0,0,0,0.1913,0.1923,0.1948,0.1954,0.1975,0.1981,0.1983,0.2015,0.2036,0.2057,0.2105,0.2087,0.2195,0.2162,0.2163,0.2198,0.2237,0.2243,0.225,0.2295,0.2309,0.232,0,0,0,0,0,0,0.19,0.193,0.1958,0.1977,0.2001,0.1995,0.2011,0.2033,0.2079,0.2107,0.2114,0.2126,0.2198,0.2198,0.2161,0.2256,0.2216,0.2223,0.225,0.2263,0.2273,0.2312,0.2128,0,0,0,0,0,0.1911,0.1938,0.196,0.1981,0.1991,0.2009,0.2022,0.2052,0.2082,0.2106,0.2133,0.2175,0.2213,0.2242,0.2267,0.2309,0.2327,0.2339,0.2349,0.2358,0.2395,0.2453,0.2471,0.2274,0.2274,0.2274,0,0,0.1909,0.1934,0.1948,0.1983,0.1995,0.2018,0.2023,0.2059,0.2099,0.2105,0.2175,0.2207,0.2234,0.2294,0.2327,0.2306,0.2423,0.2366,0.2373,0.2406,0.2461,0.248,0.2497,0.2279,0.2278,0.2277,0,0,0.1912,0.1942,0.1968,0.199,0.2038,0.2047,0.2069,0.2099,0.214,0.2207,0.2231,0.2304,0.2342,0.2381,0.2401,0.2484,0.2472,0.2489,0.2571,0.2626,0.2643,0.2657,0.2693,0.2711,0.2496,0.2496,0.2496,0,0.1923,0.1952,0.1976,0.2006,0.2032,0.2066,0.21,0.2129,0.2191,0.224,0.2252,0.2373,0.2387,0.2476,0.252,0.2506,0.2535,0.2511,0.2638,0.2653,0.2667,0.2701,0.2719,0.25,0.2499,0.2499,0.2499,0,0.1938,0.1976,0.1983,0.2041,0.2073,0.2102,0.2151,0.2203,0.2259,0.2308,0.2429,0.2473,0.2562,0.2564,0.2571,0.2683,0.2669,0.2636,0.2598,0.269,0.272,0.2738,0.2505,0.2503,0.2502,0.2501,0,0,0.1917,0.1988,0.1993,0.2029,0.2101,0.2118,0.2196,0.2275,0.2335,0.2433,0.2537,0.2625,0.2687,0.2719,0.2738,0.2791,0.29,0.2774,0.2775,0.2797,0.3026,0.2809,0.2808,0.2889,0.2893,0.2896,0.3001,0,0.1928,0.1979,0.2027,0.2082,0.2102,0.2174,0.2228,0.232,0.2404,0.2508,0.2616,0.2717,0.2732,0.2793,0.2862,0.289,0.2955,0.2875,0.2948,0.2951,0.2735,0.2824,0.2908,0.3014,0.3019,0.3022,0.3024,0,0.192,0.1957,0.2017,0.2096,0.2115,0.2167,0.2276,0.2347,0.2501,0.2572,0.273,0.2818,0.2968,0.2942,0.309,0.3043,0.307,0.3075,0.3078,0.2877,0.2768,0.2911,0.3057,0.3054,0.3052,0.3049,0.3047,0,0.1857,0.1943,0.1993,0.2019,0.2117,0.218,0.225,0.2382,0.2465,0.265,0.2739,0.2919,0.3039,0.3111,0.3174,0.3152,0.3292,0.3244,0.3079,0.3063,0.32,0.3184,0.3356,0.3356,0.3355,0.3355,0.3355,0,0.1815,0.1854,0.1972,0.1989,0.2051,0.2158,0.2251,0.2338,0.2514,0.2615,0.2797,0.2897,0.3095,0.3203,0.3222,0.3207,0.3342,0.3124,0.3086,0.3218,0.3203,0.3212,0.3194,0.3359,0.3358,0.3357,0.3357,0,0.1719,0.1802,0.1851,0.1971,0.2019,0.2067,0.2236,0.228,0.2476,0.2624,0.2706,0.2949,0.3073,0.3205,0.3321,0.3249,0.3243,0.3201,0.335,0.3313,0.2973,0.2957,0.304,0.3034,0.3028,0.3024,0.302,0,0.1671,0.1687,0.1809,0.184,0.1903,0.2001,0.2035,0.2227,0.2311,0.2607,0.2665,0.29,0.3023,0.3041,0.3158,0.3189,0.3153,0.3135,0.3059,0.2991,0.2947,0.294,0.2931,0.3011,0.3009,0.3008,0.3007,0,0.1546,0.1603,0.163,0.1719,0.1768,0.1804,0.1922,0.1977,0.2207,0.2415,0.2587,0.2694,0.2833,0.2934,0.2989,0.299,0.3131,0.3077,0.3088,0.3016,0.2956,0.2916,0.2915,0.2987,0.299,0.2992,0.2993,0,0.1448,0.1412,0.1477,0.1547,0.1616,0.1619,0.1681,0.1806,0.193,0.231,0.2347,0.2576,0.2812,0.2828,0.2851,0.2862,0.2828,0.2737,0.2765,0.2788,0.265,0.2534,0.2428,0,0,0,0,0,0.1332,0.1271,0.1306,0.1346,0.1434,0.1487,0.1611,0.1693,0.1941,0.2009,0.2207,0.2324,0.2443,0.2555,0.2518,0.2686,0.2791,0.2625,0.2688,0.2881,0.2903,0.2761,0,0,0,0,0,0,0.1233,0.1225,0.1225,0.1207,0.1233,0.127,0.1336,0.148,0.1573,0.1867,0.1954,0.2185,0.233,0.2461,0.2482,0.2511,0.2499,0.2783,0.2776,0.2868,0.2888,0.2906,0.2768,0,0,0,0,0]},{"header":{"parameterUnit":"m.s-1","parameterCategory":2,"la1":30.2991,"la2":30.254,"lo1":-89.0895,"lo2":-89.0444,"dy":0.0017,"dx":0.0017,"nx":28,"ny":28,"refTime":"2025-05-28T03:00:00:Z","depth":"4","parameterNumber":3,"parameterNumberName":"V-component_of_CURRENTS"},"data":[0,0,0,0,0,0,0,0,0,0,0,0,0,0,0,0,0,0,0,0,0,0,0,0,0,0,0,0,0,0,0,0,0,0,0,0,0,0,0,0,0,0,0,0,0,0,0,0,0,0,0,0,0,0,0,0,0,0,0.0025,0.0025,0,0.0009,0.0009,0.0009,-0.0016,-0.0016,-0.0017,-0.0017,-0.0049,-0.005,-0.005,0,0,0,0,0,0,0,0,0,0,0,0,0,0.0015,0.0015,0.0025,0.0025,0.0025,0.0009,0.0009,0.0009,-0.0016,-0.0016,-0.0017,-0.0017,-0.0049,-0.005,-0.005,0,0,0,0,0,0,0,0,0,0,0,0,0,0.0011,0.0015,0.0025,0.0011,0.001,0.0009,0.0009,0.0009,-0.0016,-0.0016,-0.0017,-0.0017,-0.0049,-0.0049,-0.005,-0.0043,0,0,-0.0052,-0.0053,0,0,0,0,0,0,0,0,0.0011,0.0011,0.0013,0.0012,0.0011,-0.0001,-0.0006,-0.0009,-0.0015,-0.0006,-0.0017,-0.0018,-0.0034,-0.0036,-0.0038,-0.0044,-0.0045,-0.0052,-0.0053,-0.0053,-0.0053,0,0,0,0,0,0,0,0.0011,0.0011,0.0019,0.0013,0.0012,-0.0001,-0.0002,-0.0007,-0.0017,-0.0007,-0.0009,-0.001,-0.0035,-0.0037,-0.0039,-0.0046,-0.0052,-0.0053,-0.0054,-0.0054,-0.0068,-0.0068,0,0,0,0,0,0,0.0016,0.0012,0.0019,0.0018,0.001,-0.0,-0.0002,0.0003,-0.0017,-0.002,-0.0009,-0.0011,-0.0036,-0.0038,-0.004,-0.0033,-0.0053,-0.0054,-0.0054,-0.0068,-0.0068,-0.0068,0,0,0,0,0,0,0.0016,0.0017,0.002,0.0015,0.0014,0.0001,0.0006,0.0003,-0.0,-0.0018,-0.0022,-0.0009,-0.0036,-0.0039,-0.0043,-0.0034,-0.0054,-0.0055,-0.0068,-0.0068,-0.0068,-0.0017,0,0,0,0,0,0,0.0016,0.0017,0.0022,0.0015,0.0015,0.0025,0.0006,0.0003,0.0,-0.0002,-0.0019,-0.0023,-0.0037,-0.0042,-0.0043,-0.0036,-0.0055,-0.0068,-0.0068,-0.0068,-0.0019,-0.0016,-0.0013,0,0,0,0,0,0.0016,0.0031,0.0022,0.0023,0.0022,0.0026,0.0024,0.0012,0.0001,0.0006,-0.0009,-0.0023,-0.0043,-0.0042,-0.0044,-0.0036,-0.0068,-0.0068,-0.0068,-0.0021,-0.0016,-0.0013,0,0,0,0,0,0,0.0028,0.0029,0.002,0.0034,0.003,0.0022,0.0026,0.0016,0.0009,0.0005,-0.0016,-0.002,-0.0023,-0.0037,-0.0035,-0.0042,-0.006,-0.006,-0.0023,-0.0019,-0.0016,-0.0007,-0.0056,0,0,0,0,0,0.0033,0.0044,0.0039,0.0048,0.0049,0.0037,0.0036,0.0028,0.0021,0.0017,0.0004,-0.0013,-0.0023,-0.0027,-0.004,-0.0036,-0.0066,-0.0036,-0.0033,-0.003,-0.0025,-0.0065,-0.0065,-0.0067,-0.0067,-0.0067,0,0,0.0041,0.0042,0.0048,0.0052,0.0047,0.0058,0.0035,0.0039,0.0047,0.0015,0.0021,-0.0,-0.0021,-0.0021,-0.0024,-0.0031,-0.0046,-0.003,-0.0027,-0.0024,-0.0065,-0.0065,-0.0065,-0.0067,-0.0067,-0.0067,0,0,0.0066,0.0063,0.0081,0.0083,0.0081,0.0074,0.0077,0.007,0.0066,0.0068,0.0043,0.0027,0.0017,0.0001,-0.0008,0.0005,-0.003,0.0001,0.003,-0.0008,-0.0008,-0.0009,-0.005,-0.0055,0.0005,0.0006,0.0006,0,0.0074,0.0097,0.0086,0.0103,0.0114,0.0085,0.011,0.01,0.0092,0.0093,0.0076,0.005,0.0027,0.0025,0.0025,0.0014,-0.0015,0.002,-0.0003,-0.0005,-0.0006,-0.0048,-0.0054,0.0008,0.0008,0.0007,0.0007,0,0.0113,0.013,0.0142,0.0155,0.0163,0.0179,0.0169,0.0165,0.0152,0.0142,0.0134,0.0099,0.0086,0.0071,0.0053,0.0038,0.0019,0.0004,-0.0011,-0.0002,-0.0048,-0.0055,0.0011,0.0011,0.001,0.0009,0,0,0.0138,0.0166,0.017,0.0195,0.0197,0.0214,0.0217,0.0222,0.023,0.0202,0.0215,0.0176,0.0152,0.0139,0.0109,0.0072,0.0031,0.0039,0.0036,0.0004,-0.0057,-0.006,-0.0069,0.0014,0.0013,0.0012,-0.0086,0,0.0173,0.0223,0.0228,0.0278,0.0306,0.029,0.0305,0.03,0.0282,0.0281,0.0234,0.0232,0.0182,0.0179,0.0132,0.0059,0.0016,0.0059,-0.0065,-0.0069,-0.0068,-0.0075,0.001,-0.0092,-0.0093,-0.0094,-0.0095,0,0.0212,0.0244,0.0302,0.0353,0.0366,0.0389,0.041,0.0419,0.0394,0.0381,0.0352,0.0316,0.0265,0.0222,0.0093,0.0124,0.004,-0.0027,-0.0033,-0.0056,-0.0084,-0.0103,-0.0108,-0.0107,-0.0106,-0.0105,-0.0104,0,0.0244,0.03,0.0353,0.037,0.0413,0.044,0.0459,0.045,0.0481,0.0445,0.0456,0.0378,0.0361,0.0235,0.0092,0.0095,-0.0059,-0.0073,-0.0158,-0.016,-0.0149,-0.0148,-0.0166,-0.0166,-0.0166,-0.0166,-0.0165,0,0.0284,0.0329,0.0376,0.0409,0.0491,0.0493,0.0562,0.0556,0.0569,0.0612,0.052,0.0528,0.0364,0.0261,0.0112,-0.0046,-0.0048,-0.0156,-0.0185,-0.0127,-0.0122,-0.0155,-0.0152,-0.0169,-0.0169,-0.0168,-0.0167,0,0.0313,0.0338,0.0409,0.0473,0.0511,0.0565,0.0662,0.0701,0.0688,0.0737,0.0737,0.0651,0.0507,0.0323,0.0119,0.0002,-0.0168,-0.0225,-0.0153,-0.0176,-0.0248,-0.0242,-0.0321,-0.0322,-0.0323,-0.0323,-0.0324,0,0.0334,0.037,0.0469,0.0529,0.0569,0.0658,0.0729,0.0764,0.0812,0.0811,0.0842,0.0731,0.0643,0.0357,0.0143,-0.0148,-0.0186,-0.0277,-0.0262,-0.0243,-0.0264,-0.0256,-0.0249,-0.0325,-0.0325,-0.0325,-0.0326,0,0.0377,0.0404,0.0468,0.0594,0.0687,0.0791,0.0888,0.0942,0.097,0.0971,0.0942,0.079,0.063,0.0386,0.0156,-0.0054,-0.0223,-0.0286,-0.0285,-0.0271,-0.0249,-0.0267,-0.0259,-0.0328,-0.0328,-0.0328,-0.0328,0,0.0411,0.0459,0.0542,0.0657,0.0775,0.088,0.0933,0.0999,0.1053,0.1048,0.1038,0.0842,0.074,0.0434,0.0217,0.001,-0.0036,-0.01,-0.011,-0.011,-0.0026,0.0034,0.0018,0,0,0,0,0,0.044,0.0498,0.0604,0.0723,0.0836,0.0908,0.1024,0.1058,0.1099,0.11,0.1074,0.0918,0.0614,0.048,0.0277,0.0184,-0.0091,-0.0064,-0.0174,-0.0343,-0.034,-0.0279,0,0,0,0,0,0,0.0461,0.0551,0.0604,0.0755,0.0842,0.0973,0.1047,0.1076,0.1079,0.1082,0.0931,0.086,0.0565,0.0728,0.0269,0.0205,0.0106,-0.0205,-0.0209,-0.0345,-0.0342,-0.034,-0.0276,0,0,0,0,0]}]]